Simultaneous Nadir Overpasses (SNOs) Predictions

Prediction of SNOs between NOAA-19 and NPP Satellite Orbit:

Table of predicted SNOs for the next 14.0 days since TLE Epoch: 7/19/2019
Index Date (NOAA-19) Time (NOAA-19) Lat,Lon (NOAA-19) SZA (NOAA-19 ) Date (NPP) Time (NPP) Lat,Lon (NPP) SZA (NPP ) Distance(km) Time Diff (sec)
1 08/01/2019 21:55:09 79.97, 172.53 64.55 08/01/2019 21:56:14 79.97, 172.44 64.52 1.82 65
2 08/01/2019 22:46:08 -79.98, -20.17 115.45 08/01/2019 22:46:59 -79.97, -20.30 115.47 2.54 51
3 08/01/2019 23:37:10 79.97, 146.96 64.57 08/01/2019 23:37:44 79.97, 147.04 64.54 1.42 34
4 08/02/2019 00:28:09 -79.97, -45.74 115.43 08/02/2019 00:28:29 -79.98, -45.70 115.44 0.84 20
5 08/02/2019 01:19:10 79.99, 121.71 64.57 08/02/2019 01:19:14 79.97, 121.63 64.57 2.22 4
6 08/02/2019 02:10:09 -79.99, -71.00 115.43 08/02/2019 02:09:59 -79.98, -71.10 115.42 2.49 10
7 08/02/2019 03:01:11 79.98, 96.15 64.59 08/02/2019 03:00:44 79.98, 96.23 64.59 1.82 27
8 08/02/2019 03:52:10 -79.99, -96.56 115.41 08/02/2019 03:51:29 -79.98, -96.50 115.40 1.28 41
9 08/02/2019 04:43:11 80.00, 70.90 64.59 08/02/2019 04:42:14 79.98, 70.83 64.61 2.94 57




NCC Satellite Simultaneous Nadir Overpasses (SNOs) Prediction Service
